[[{"header":{"parameterUnit":"m.s-1","parameterCategory":2,"la1":30.2992,"la2":30.254,"lo1":-89.0895,"lo2":-89.0443,"dy":0.0025,"dx":0.0025,"nx":19,"ny":19,"refTime":"2026-04-30T03:00:00:Z","depth":"0","parameterNumber":2,"parameterNumberName":"U-component_of_CURRENTS"},"data":[0,0,0,-0.1339,-0.1339,-0.1338,-0.1338,-0.1341,-0.1341,0,0,0,0,0,0,0,0,0,0,0,-0.1336,-0.1336,-0.1338,-0.1339,-0.1338,-0.1338,-0.1341,-0.1341,0,0,0,0,0,0,0,0,0,0,0,-0.1336,-0.1336,-0.1336,-0.1339,-0.1338,-0.1338,-0.1341,-0.134,0,0,0,0,0,0,0,0,0,0,-0.1339,-0.1335,-0.1336,-0.1336,-0.1339,-0.1338,-0.1338,-0.1339,-0.134,-0.1344,0,-0.1344,0,-0.1346,-0.1342,-0.1342,0,0,0,-0.1335,-0.1334,-0.1339,-0.1336,-0.1339,-0.1338,-0.1337,-0.1339,-0.134,-0.1344,-0.1344,-0.1344,-0.1346,-0.1342,-0.1342,-0.1315,-0.1315,0,0,-0.1335,-0.1331,-0.1338,-0.1339,-0.1339,-0.1337,-0.1337,-0.134,-0.1338,-0.1344,-0.1344,-0.1346,-0.1342,-0.1342,-0.1315,-0.1315,0,0,0,-0.1338,-0.1331,-0.1335,-0.1339,-0.134,-0.1337,-0.1337,-0.1337,-0.134,-0.1344,-0.1346,-0.1342,-0.1342,-0.1316,-0.1315,-0.1306,0,0,0,-0.1337,-0.1333,-0.1335,-0.1333,-0.134,-0.1338,-0.1335,-0.134,-0.134,-0.1346,-0.1342,-0.1342,-0.1316,-0.1315,-0.1307,-0.1306,0,0,0,-0.1336,-0.1333,-0.1334,-0.1333,-0.1335,-0.1338,-0.134,-0.134,-0.1341,-0.1342,-0.1342,-0.1316,-0.1316,-0.1308,-0.1308,-0.1305,0,0,0,-0.1331,-0.1337,-0.1334,-0.1341,-0.1335,-0.1337,-0.134,-0.1342,-0.1342,-0.1342,-0.1316,-0.1315,-0.1308,-0.1309,-0.1306,-0.1383,-0.1386,0,0,-0.1339,-0.1338,-0.1343,-0.1341,-0.1343,-0.1337,-0.1328,-0.1331,-0.1327,-0.1316,-0.1316,-0.1307,-0.1308,-0.1305,-0.1333,-0.1337,0,0,0,-0.1346,-0.1345,-0.1347,-0.1345,-0.1347,-0.1331,-0.1331,-0.1319,-0.1299,-0.1324,-0.1291,-0.1292,-0.1291,-0.1339,-0.1342,-0.1445,-0.1311,-0.1311,-0.1311,-0.1344,-0.1346,-0.1344,-0.1341,-0.1339,-0.1325,-0.1307,-0.1285,-0.1292,-0.1272,-0.1273,-0.1249,-0.1298,-0.1302,-0.1407,-0.1258,-0.1258,-0.1258,-0.1258,-0.134,-0.1331,-0.1329,-0.1327,-0.1315,-0.1303,-0.1277,-0.1268,-0.124,-0.1244,-0.1243,-0.1312,-0.1305,-0.1416,-0.1257,-0.1257,-0.1257,-0.1257,-0.1257,-0.1325,-0.1318,-0.132,-0.1307,-0.1294,-0.1285,-0.1271,-0.1251,-0.1233,-0.1223,-0.1287,-0.1288,-0.1397,-0.123,-0.123,-0.123,-0.123,-0.123,-0.123,-0.1302,-0.1302,-0.1292,-0.1285,-0.1279,-0.1274,-0.1267,-0.1266,-0.1281,-0.1282,-0.1283,-0.1405,-0.1241,-0.1255,-0.123,-0.123,-0.123,-0.123,-0.123,-0.1263,-0.1274,-0.1259,-0.1254,-0.1247,-0.1265,-0.1283,-0.1341,-0.1334,-0.1357,-0.1481,-0.1314,-0.1328,-0.1326,-0.1342,-0.1341,-0.134,-0.1341,-0.1341,-0.1235,-0.124,-0.1219,-0.121,-0.1214,-0.1252,-0.1349,-0.1441,-0.1535,-0.1596,-0.1583,-0.1623,-0.1614,-0.1646,-0.1637,-0.166,-0.1739,-0.1739,-0.174,-0.1198,-0.1204,-0.1176,-0.118,-0.1191,-0.1253,-0.1392,-0.1617,-0.1759,-0.1763,-0.1711,-0.1694,-0.1758,-0.1735,-0.1787,-0.1767,-0.1804,0,0]},{"header":{"parameterUnit":"m.s-1","parameterCategory":2,"la1":30.2992,"la2":30.254,"lo1":-89.0895,"lo2":-89.0443,"dy":0.0025,"dx":0.0025,"nx":19,"ny":19,"refTime":"2026-04-30T03:00:00:Z","depth":"0","parameterNumber":3,"parameterNumberName":"V-component_of_CURRENTS"},"data":[0,0,0,-0.0462,-0.0461,-0.0451,-0.0451,-0.0436,-0.0436,0,0,0,0,0,0,0,0,0,0,0,-0.0464,-0.0464,-0.0462,-0.0461,-0.0451,-0.0451,-0.0436,-0.0436,0,0,0,0,0,0,0,0,0,0,0,-0.0464,-0.0464,-0.0464,-0.0461,-0.0452,-0.0451,-0.0436,-0.0443,0,0,0,0,0,0,0,0,0,0,-0.0453,-0.0459,-0.0464,-0.0464,-0.0461,-0.0452,-0.0451,-0.0444,-0.0443,-0.0441,0,-0.0441,0,-0.044,-0.0435,-0.0435,0,0,0,-0.0458,-0.046,-0.0456,-0.0464,-0.0461,-0.0452,-0.0455,-0.0443,-0.0442,-0.044,-0.044,-0.044,-0.044,-0.0435,-0.0435,-0.0417,-0.0417,0,0,-0.0459,-0.0463,-0.0456,-0.0455,-0.046,-0.0455,-0.0455,-0.0443,-0.0443,-0.044,-0.0439,-0.0439,-0.0435,-0.0435,-0.0417,-0.0417,0,0,0,-0.0462,-0.0463,-0.0459,-0.0456,-0.0455,-0.0455,-0.0454,-0.0444,-0.0442,-0.0439,-0.0439,-0.0435,-0.0435,-0.0417,-0.0417,-0.0427,0,0,0,-0.0463,-0.0465,-0.046,-0.0462,-0.0455,-0.0451,-0.0456,-0.0443,-0.0442,-0.0439,-0.0435,-0.0435,-0.0417,-0.0417,-0.0427,-0.0444,0,0,0,-0.0464,-0.0466,-0.0465,-0.0462,-0.0459,-0.0451,-0.0448,-0.0443,-0.0442,-0.0435,-0.0435,-0.0417,-0.0417,-0.0427,-0.0443,-0.0458,0,0,0,-0.0468,-0.0474,-0.0465,-0.047,-0.0459,-0.0456,-0.0448,-0.0446,-0.0442,-0.0435,-0.0417,-0.0417,-0.0427,-0.0443,-0.0458,-0.0497,-0.0503,0,0,-0.0479,-0.0475,-0.0478,-0.047,-0.0472,-0.0457,-0.0454,-0.0445,-0.0435,-0.0421,-0.042,-0.0427,-0.0443,-0.0458,-0.0482,-0.0488,0,0,0,-0.0484,-0.0487,-0.0485,-0.0484,-0.0476,-0.0467,-0.0454,-0.0444,-0.0428,-0.0432,-0.0418,-0.0429,-0.0438,-0.046,-0.0465,-0.0402,-0.0416,-0.0416,-0.0416,-0.0509,-0.0501,-0.0507,-0.0497,-0.049,-0.0472,-0.0463,-0.0444,-0.0432,-0.0423,-0.043,-0.044,-0.0463,-0.0467,-0.0401,-0.0415,-0.0415,-0.0415,-0.0415,-0.0535,-0.0544,-0.0525,-0.0529,-0.051,-0.0503,-0.0472,-0.0458,-0.0445,-0.0429,-0.0437,-0.0461,-0.0473,-0.04,-0.0416,-0.0416,-0.0416,-0.0416,-0.0416,-0.0563,-0.0566,-0.0563,-0.0565,-0.0556,-0.053,-0.0534,-0.0497,-0.0466,-0.0466,-0.0495,-0.0496,-0.0439,-0.0471,-0.0471,-0.0471,-0.0471,-0.0472,-0.0472,-0.06,-0.0594,-0.0612,-0.0605,-0.0611,-0.0606,-0.0573,-0.0566,-0.0542,-0.0519,-0.0519,-0.0435,-0.0458,-0.0464,-0.0474,-0.0473,-0.0473,-0.0473,-0.0473,-0.0644,-0.0643,-0.0675,-0.0686,-0.0698,-0.0722,-0.0678,-0.0664,-0.064,-0.0638,-0.0499,-0.0545,-0.0551,-0.0547,-0.0555,-0.0588,-0.0588,-0.0588,-0.0588,-0.068,-0.0679,-0.0736,-0.0769,-0.0793,-0.0781,-0.081,-0.0748,-0.0624,-0.0551,-0.0509,-0.0487,-0.0485,-0.0484,-0.0482,-0.0487,-0.0502,-0.0502,-0.0502,-0.0715,-0.073,-0.0783,-0.0811,-0.0841,-0.0854,-0.0874,-0.0782,-0.0583,-0.0488,-0.041,-0.0414,-0.0369,-0.0372,-0.0361,-0.0363,-0.0369,0,0]}],[{"header":{"parameterUnit":"m.s-1","parameterCategory":2,"la1":30.2992,"la2":30.254,"lo1":-89.0895,"lo2":-89.0443,"dy":0.0025,"dx":0.0025,"nx":19,"ny":19,"refTime":"2026-04-30T03:00:00:Z","depth":"2","parameterNumber":2,"parameterNumberName":"U-component_of_CURRENTS"},"data":[0,0,0,-0.1269,-0.1269,-0.1271,-0.1271,-0.1274,-0.1274,0,0,0,0,0,0,0,0,0,0,0,-0.1266,-0.1266,-0.1269,-0.1269,-0.1271,-0.1271,-0.1274,-0.1274,0,0,0,0,0,0,0,0,0,0,0,-0.1266,-0.1266,-0.1266,-0.1269,-0.1271,-0.1271,-0.1274,-0.1271,0,0,0,0,0,0,0,0,0,0,-0.1269,-0.1265,-0.1266,-0.1266,-0.127,-0.1271,-0.1271,-0.1271,-0.1272,-0.1274,0,-0.1275,0,-0.1278,-0.1274,-0.1274,0,0,0,-0.1266,-0.1265,-0.1269,-0.1266,-0.127,-0.1271,-0.1269,-0.1271,-0.1272,-0.1275,-0.1275,-0.1276,-0.1278,-0.1274,-0.1274,-0.1247,-0.1247,0,0,-0.1266,-0.1262,-0.1269,-0.1269,-0.1271,-0.1269,-0.1269,-0.1272,-0.127,-0.1275,-0.1276,-0.1278,-0.1274,-0.1275,-0.1247,-0.1247,0,0,0,-0.1268,-0.1262,-0.1266,-0.1269,-0.1271,-0.1269,-0.127,-0.127,-0.1272,-0.1276,-0.1278,-0.1274,-0.1275,-0.1248,-0.1247,-0.1239,0,0,0,-0.1268,-0.1264,-0.1266,-0.1264,-0.1271,-0.127,-0.1268,-0.1272,-0.1273,-0.1278,-0.1274,-0.1275,-0.1248,-0.1247,-0.124,-0.124,0,0,0,-0.1266,-0.1264,-0.1265,-0.1264,-0.1267,-0.127,-0.1272,-0.1272,-0.1274,-0.1274,-0.1275,-0.1248,-0.1248,-0.1241,-0.1241,-0.1238,0,0,0,-0.1261,-0.1267,-0.1265,-0.1272,-0.1267,-0.127,-0.1272,-0.1275,-0.1276,-0.1275,-0.1248,-0.1247,-0.1241,-0.1242,-0.1239,-0.1306,-0.1309,0,0,-0.1268,-0.1268,-0.1273,-0.1271,-0.1274,-0.1269,-0.126,-0.1264,-0.126,-0.1248,-0.1247,-0.124,-0.1241,-0.1239,-0.1257,-0.1261,0,0,0,-0.1275,-0.1274,-0.1276,-0.1275,-0.1277,-0.1262,-0.1263,-0.1251,-0.1233,-0.1257,-0.1224,-0.1225,-0.1224,-0.1266,-0.1268,-0.1243,-0.1243,-0.1243,-0.1243,-0.1274,-0.1275,-0.1273,-0.127,-0.1268,-0.1255,-0.1238,-0.1217,-0.1225,-0.1206,-0.1207,-0.1184,-0.1227,-0.123,-0.1192,-0.1192,-0.1192,-0.1192,-0.1192,-0.1269,-0.126,-0.1259,-0.1257,-0.1245,-0.1234,-0.1209,-0.1201,-0.1174,-0.1178,-0.1178,-0.1241,-0.1232,-0.1191,-0.1191,-0.1191,-0.1192,-0.1192,-0.1192,-0.1255,-0.1248,-0.125,-0.1239,-0.1226,-0.1218,-0.1204,-0.1186,-0.1168,-0.1159,-0.1216,-0.1217,-0.1193,-0.1166,-0.1166,-0.1166,-0.1166,-0.1166,-0.1166,-0.1233,-0.1233,-0.1225,-0.1218,-0.1213,-0.1209,-0.1203,-0.1202,-0.1213,-0.1211,-0.1212,-0.1175,-0.1176,-0.119,-0.1166,-0.1166,-0.1166,-0.1166,-0.1166,-0.1195,-0.1207,-0.1194,-0.119,-0.1185,-0.1189,-0.1217,-0.1269,-0.1265,-0.1285,-0.124,-0.1239,-0.1251,-0.1249,-0.1265,-0.1261,-0.1261,-0.1261,-0.1261,-0.1169,-0.1174,-0.1157,-0.115,-0.1155,-0.1172,-0.1219,-0.1217,-0.1232,-0.1191,-0.1193,-0.1202,-0.1201,-0.121,-0.1209,-0.1224,-0.1208,-0.1208,-0.1207,-0.1134,-0.114,-0.1116,-0.1123,-0.1134,-0.116,-0.1191,-0.1164,-0.1135,-0.1196,-0.1085,-0.1277,-0.1299,-0.1295,-0.1316,-0.1312,-0.1338,0,0]},{"header":{"parameterUnit":"m.s-1","parameterCategory":2,"la1":30.2992,"la2":30.254,"lo1":-89.0895,"lo2":-89.0443,"dy":0.0025,"dx":0.0025,"nx":19,"ny":19,"refTime":"2026-04-30T03:00:00:Z","depth":"2","parameterNumber":3,"parameterNumberName":"V-component_of_CURRENTS"},"data":[0,0,0,-0.0413,-0.0413,-0.0405,-0.0405,-0.0391,-0.0391,0,0,0,0,0,0,0,0,0,0,0,-0.0414,-0.0414,-0.0413,-0.0413,-0.0405,-0.0405,-0.0391,-0.0391,0,0,0,0,0,0,0,0,0,0,0,-0.0414,-0.0414,-0.0414,-0.0413,-0.0405,-0.0405,-0.0391,-0.0397,0,0,0,0,0,0,0,0,0,0,-0.0405,-0.0411,-0.0414,-0.0414,-0.0413,-0.0405,-0.0405,-0.0398,-0.0397,-0.0395,0,-0.0395,0,-0.0395,-0.039,-0.039,0,0,0,-0.0409,-0.0411,-0.0407,-0.0414,-0.0413,-0.0405,-0.0407,-0.0397,-0.0396,-0.0394,-0.0395,-0.0394,-0.0394,-0.039,-0.039,-0.0376,-0.0376,0,0,-0.041,-0.0414,-0.0408,-0.0407,-0.0412,-0.0408,-0.0407,-0.0397,-0.0398,-0.0395,-0.0394,-0.0394,-0.039,-0.039,-0.0376,-0.0376,0,0,0,-0.0413,-0.0414,-0.0411,-0.0408,-0.0407,-0.0408,-0.0407,-0.0398,-0.0396,-0.0394,-0.0394,-0.039,-0.039,-0.0376,-0.0376,-0.0385,0,0,0,-0.0413,-0.0416,-0.0411,-0.0413,-0.0408,-0.0404,-0.0409,-0.0397,-0.0396,-0.0394,-0.039,-0.039,-0.0376,-0.0376,-0.0385,-0.0399,0,0,0,-0.0414,-0.0417,-0.0416,-0.0414,-0.0412,-0.0404,-0.0402,-0.0397,-0.0396,-0.039,-0.039,-0.0376,-0.0376,-0.0385,-0.0398,-0.0408,0,0,0,-0.0418,-0.0425,-0.0416,-0.0423,-0.0412,-0.041,-0.0402,-0.0401,-0.0398,-0.039,-0.0376,-0.0376,-0.0385,-0.0398,-0.0408,-0.0432,-0.0435,0,0,-0.0431,-0.0427,-0.0431,-0.0422,-0.0426,-0.0411,-0.0409,-0.0402,-0.0392,-0.0379,-0.0379,-0.0385,-0.0398,-0.0408,-0.042,-0.0425,0,0,0,-0.0437,-0.044,-0.0439,-0.0438,-0.0431,-0.0422,-0.0411,-0.0401,-0.0387,-0.039,-0.0379,-0.0387,-0.0393,-0.0406,-0.0409,-0.0375,-0.0375,-0.0375,-0.0375,-0.0463,-0.0455,-0.0462,-0.0452,-0.0447,-0.0429,-0.042,-0.0402,-0.0392,-0.0385,-0.0389,-0.0397,-0.041,-0.0413,-0.0378,-0.0378,-0.0378,-0.0378,-0.0378,-0.0489,-0.0498,-0.048,-0.0485,-0.0466,-0.046,-0.0429,-0.0416,-0.0401,-0.0389,-0.0394,-0.0408,-0.0417,-0.0378,-0.0378,-0.0378,-0.0378,-0.0378,-0.0378,-0.0517,-0.052,-0.0517,-0.0518,-0.0509,-0.0485,-0.0484,-0.0449,-0.042,-0.0418,-0.0435,-0.0435,-0.0413,-0.0422,-0.0422,-0.0422,-0.0422,-0.0422,-0.0422,-0.0552,-0.0547,-0.0564,-0.0556,-0.0561,-0.0554,-0.0519,-0.0509,-0.0478,-0.0454,-0.0454,-0.0412,-0.041,-0.0415,-0.0423,-0.0423,-0.0423,-0.0423,-0.0423,-0.0595,-0.0594,-0.0623,-0.0633,-0.0641,-0.0643,-0.061,-0.0585,-0.0561,-0.0553,-0.0471,-0.047,-0.0472,-0.0469,-0.0475,-0.0499,-0.0499,-0.0499,-0.0499,-0.0629,-0.0628,-0.0681,-0.071,-0.0728,-0.0691,-0.0679,-0.0548,-0.0469,-0.0393,-0.0397,-0.0377,-0.0378,-0.0373,-0.0373,-0.0375,-0.0373,-0.0372,-0.0372,-0.0662,-0.0676,-0.0725,-0.0749,-0.0772,-0.0741,-0.0683,-0.0489,-0.034,-0.0359,-0.0299,-0.0505,-0.0488,-0.0484,-0.0486,-0.0481,-0.049,0,0]}],[{"header":{"parameterUnit":"m.s-1","parameterCategory":2,"la1":30.2992,"la2":30.254,"lo1":-89.0895,"lo2":-89.0443,"dy":0.0025,"dx":0.0025,"nx":19,"ny":19,"refTime":"2026-04-30T03:00:00:Z","depth":"4","parameterNumber":2,"parameterNumberName":"U-component_of_CURRENTS"},"data":[0,0,0,-0.086,-0.0861,-0.0916,-0.0916,-0.0955,-0.0956,0,0,0,0,0,0,0,0,0,0,0,-0.0843,-0.0843,-0.086,-0.0861,-0.0916,-0.0916,-0.0955,-0.0956,0,0,0,0,0,0,0,0,0,0,0,-0.0843,-0.0843,-0.0844,-0.0861,-0.0916,-0.0916,-0.0955,-0.0922,0,0,0,0,0,0,0,0,0,0,-0.0872,-0.0862,-0.0843,-0.0844,-0.0862,-0.0916,-0.0916,-0.092,-0.0924,-0.0922,0,-0.0934,0,-0.0944,-0.0958,-0.0958,0,0,0,-0.0861,-0.0859,-0.0873,-0.0844,-0.0862,-0.0916,-0.0891,-0.0922,-0.0926,-0.0926,-0.0935,-0.0937,-0.0945,-0.0958,-0.0958,-0.0958,-0.0957,0,0,-0.0858,-0.0853,-0.087,-0.0875,-0.0881,-0.0889,-0.0893,-0.0925,-0.0931,-0.0935,-0.0938,-0.0946,-0.0958,-0.0958,-0.0958,-0.0958,0,0,0,-0.0849,-0.085,-0.0864,-0.0874,-0.0885,-0.0891,-0.0895,-0.0929,-0.0934,-0.0938,-0.0946,-0.0958,-0.0958,-0.0958,-0.0958,-0.0952,0,0,0,-0.0848,-0.0845,-0.0863,-0.086,-0.0885,-0.0912,-0.0899,-0.0932,-0.0936,-0.0946,-0.0958,-0.0959,-0.0958,-0.0958,-0.0953,-0.095,0,0,0,-0.084,-0.0844,-0.0852,-0.086,-0.0883,-0.0912,-0.0919,-0.0933,-0.0941,-0.0958,-0.0959,-0.0958,-0.0958,-0.0954,-0.0951,-0.0944,0,0,0,-0.0829,-0.0841,-0.0852,-0.0869,-0.0883,-0.0908,-0.0919,-0.0945,-0.096,-0.0958,-0.0958,-0.0958,-0.0954,-0.0951,-0.0945,-0.087,0,0,0,-0.0836,-0.0842,-0.0852,-0.0863,-0.0882,-0.09,-0.0913,-0.0941,-0.0947,-0.0946,-0.0947,-0.0953,-0.0951,-0.0944,-0.084,0,0,0,0,-0.0848,-0.0852,-0.0862,-0.0878,-0.0898,-0.0908,-0.0933,-0.0934,-0.094,-0.0954,-0.0944,-0.0942,-0.0939,-0.0896,-0.0955,-0.0955,-0.0955,-0.0955,-0.0955,-0.0837,-0.085,-0.0862,-0.0878,-0.0894,-0.0913,-0.0915,-0.0917,-0.0933,-0.0928,-0.0931,-0.0913,-0.0867,-0.0924,-0.0924,-0.0924,-0.0924,-0.0924,-0.0924,-0.0829,-0.0828,-0.0852,-0.087,-0.0885,-0.0898,-0.09,-0.0906,-0.0899,-0.0911,-0.0908,-0.0885,-0.0923,-0.0924,-0.0924,-0.0924,-0.0924,-0.0924,-0.0924,-0.0803,-0.0803,-0.0829,-0.0854,-0.0873,-0.0894,-0.0891,-0.0899,-0.0894,-0.0889,-0.0851,-0.0907,-0.0915,-0.0897,-0.0897,-0.0897,-0.0897,-0.0897,-0.0897,-0.0761,-0.0783,-0.0804,-0.0837,-0.0859,-0.0878,-0.0894,-0.0883,-0.0887,-0.0832,-0.0895,-0.0904,-0.0905,-0.0913,-0.0896,-0.0896,-0.0896,-0.0896,-0.0896,-0.0714,-0.0744,-0.0766,-0.0793,-0.0832,-0.0838,-0.0873,-0.083,-0.0809,-0.0768,-0.0796,-0.0801,-0.0796,-0.0799,-0.0804,-0.0754,-0.0753,-0.0752,0,-0.0684,-0.0699,-0.0732,-0.0759,-0.0771,-0.0806,-0.0759,-0.0754,-0.074,-0.0719,-0.0812,-0.0845,-0.0847,-0.0846,-0.0847,-0.0854,0,0,0,-0.0656,-0.0675,-0.0684,-0.0725,-0.0738,-0.0717,-0.0739,-0.0708,-0.0746,-0.0699,-0.0726,-0.0733,-0.0853,-0.0893,-0.0899,-0.09,-0.0913,0,0]},{"header":{"parameterUnit":"m.s-1","parameterCategory":2,"la1":30.2992,"la2":30.254,"lo1":-89.0895,"lo2":-89.0443,"dy":0.0025,"dx":0.0025,"nx":19,"ny":19,"refTime":"2026-04-30T03:00:00:Z","depth":"4","parameterNumber":3,"parameterNumberName":"V-component_of_CURRENTS"},"data":[0,0,0,-0.022,-0.0221,-0.0236,-0.0236,-0.0254,-0.0254,0,0,0,0,0,0,0,0,0,0,0,-0.0216,-0.0216,-0.022,-0.0221,-0.0236,-0.0236,-0.0254,-0.0254,0,0,0,0,0,0,0,0,0,0,0,-0.0215,-0.0216,-0.0216,-0.0221,-0.0236,-0.0236,-0.0254,-0.0243,0,0,0,0,0,0,0,0,0,0,-0.0228,-0.0227,-0.0216,-0.0216,-0.0221,-0.0236,-0.0236,-0.0242,-0.0244,-0.0247,0,-0.0251,0,-0.0253,-0.0256,-0.0256,0,0,0,-0.022,-0.0226,-0.0227,-0.0216,-0.0221,-0.0236,-0.0229,-0.0243,-0.0245,-0.0249,-0.0251,-0.0252,-0.0254,-0.0256,-0.0256,-0.0281,-0.0281,0,0,-0.022,-0.022,-0.0226,-0.0228,-0.0227,-0.0229,-0.023,-0.0244,-0.0248,-0.0251,-0.0252,-0.0254,-0.0256,-0.0256,-0.0281,-0.0281,0,0,0,-0.0217,-0.022,-0.0221,-0.0227,-0.023,-0.0229,-0.023,-0.0247,-0.0247,-0.0252,-0.0254,-0.0256,-0.0256,-0.0281,-0.0281,-0.0286,0,0,0,-0.0217,-0.0219,-0.0221,-0.0222,-0.023,-0.024,-0.0233,-0.0246,-0.0248,-0.0254,-0.0256,-0.0256,-0.0281,-0.0281,-0.0285,-0.0272,0,0,0,-0.0215,-0.0218,-0.022,-0.0222,-0.0229,-0.024,-0.024,-0.0246,-0.0249,-0.0256,-0.0257,-0.0281,-0.0281,-0.0285,-0.0272,-0.0232,0,0,0,-0.0215,-0.0229,-0.022,-0.0239,-0.0228,-0.025,-0.024,-0.0257,-0.0266,-0.0256,-0.0281,-0.0281,-0.0285,-0.0272,-0.0232,-0.0173,0,0,0,-0.0235,-0.0232,-0.0243,-0.0236,-0.0257,-0.0248,-0.0268,-0.0272,-0.027,-0.0275,-0.0276,-0.0286,-0.0272,-0.0232,-0.0194,0,0,0,0,-0.0251,-0.0258,-0.0264,-0.0273,-0.0281,-0.0278,-0.0286,-0.0283,-0.0285,-0.0276,-0.0291,-0.0282,-0.0256,-0.0225,-0.0283,-0.0283,-0.0283,-0.0283,-0.0283,-0.0275,-0.0278,-0.0294,-0.0297,-0.0305,-0.0304,-0.0297,-0.0291,-0.0301,-0.0301,-0.0291,-0.0269,-0.0239,-0.0304,-0.0304,-0.0304,-0.0304,-0.0304,-0.0304,-0.0299,-0.0304,-0.0304,-0.032,-0.0312,-0.0324,-0.0306,-0.0302,-0.0279,-0.0298,-0.0273,-0.024,-0.0305,-0.0305,-0.0305,-0.0305,-0.0305,-0.0305,-0.0305,-0.0309,-0.0309,-0.032,-0.0331,-0.0329,-0.0325,-0.0287,-0.0285,-0.0271,-0.0254,-0.0196,-0.0254,-0.0246,-0.0239,-0.0239,-0.0238,-0.0238,-0.0238,-0.0238,-0.0308,-0.0317,-0.0328,-0.0337,-0.0336,-0.0317,-0.0276,-0.023,-0.0212,-0.0179,-0.0245,-0.0246,-0.0248,-0.0241,-0.0234,-0.0235,-0.0235,-0.0236,-0.0236,-0.0312,-0.0319,-0.0331,-0.0335,-0.0315,-0.0289,-0.0258,-0.0144,-0.0088,-0.0039,-0.0126,-0.0133,-0.0113,-0.0118,-0.0106,-0.0058,-0.0058,-0.0057,0,-0.0311,-0.0316,-0.0322,-0.0312,-0.0276,-0.0259,-0.0151,-0.0086,-0.005,-0.0066,-0.0101,-0.0207,-0.0209,-0.0195,-0.0198,-0.0187,0,0,0,-0.0308,-0.0312,-0.0307,-0.0296,-0.0252,-0.0155,-0.0114,-0.0067,-0.0084,0.003,-0.0036,-0.0041,-0.0134,-0.0224,-0.0208,-0.0211,-0.0198,0,0]}]]